Location: Balaclava NSW 2575, Australia
(34.4510°S, 150.4953°E)
Time: 08:58:36
(UTC+10:00)

Envisat - Visible Passes

Search period start: 28 July 2021 00:00
Search period end: 07 August 2021 00:00
Orbit: 764 x 766 km, 98.2° (Epoch: 27 July)

Date Brightness Start Highest point End Pass type
(mag) Time Alt. Az. Time Alt. Az. Time Alt. Az.
28 Jul 4.2 04:14:58 10° NNE 04:18:03 36° NE 04:18:03 36° NE visible
28 Jul 4.9 05:57:20 10° WNW 05:58:15 12° WNW 05:58:15 12° WNW visible
28 Jul 5.1 18:07:01 10° SSW 18:11:20 28° WSW 18:15:37 10° NW visible
29 Jul 5.4 03:39:10 10° NE 03:40:51 18° ENE 03:40:51 18° ENE visible
29 Jul 4.0 05:17:48 10° NNW 05:21:02 27° WNW 05:21:02 27° WNW visible
30 Jul 3.5 04:40:14 10° N 04:43:50 46° N 04:43:50 46° N visible
30 Jul 5.7 18:33:23 10° SSW 18:36:25 16° WSW 18:39:26 10° WNW visible
31 Jul 4.5 04:03:41 10° NE 04:06:38 32° NE 04:06:38 32° NE visible
31 Jul 4.6 05:44:38 10° NW 05:46:50 16° WNW 05:46:50 16° WNW visible
31 Jul 4.7 17:55:16 10° S 17:59:56 36° WSW 18:04:32 10° NW visible
01 Aug 5.7 03:28:15 10° ENE 03:29:26 15° ENE 03:29:26 15° ENE visible
01 Aug 3.7 05:05:58 10° NNW 05:09:39 35° NW 05:09:39 35° NW visible
02 Aug 3.5 04:28:44 10° NNE 04:32:28 50° NNE 04:32:28 50° NNE visible
02 Aug 5.5 18:21:22 10° SSW 18:25:03 20° WSW 18:28:44 10° WNW visible
03 Aug 4.8 03:52:29 10° NE 03:55:17 28° ENE 03:55:17 28° ENE visible
03 Aug 4.3 05:32:22 10° NW 05:35:29 21° WNW 05:35:29 21° WNW visible
03 Aug 4.2 17:43:36 10° S 17:48:30 46° WSW 17:53:21 10° NW visible
04 Aug 5.9 03:17:31 10° ENE 03:18:07 12° E 03:18:07 12° E visible
04 Aug 3.3 04:54:15 10° N 04:58:19 45° NW 04:58:19 45° NW visible
04 Aug 6.0 18:48:34 10° SW 18:50:04 11° WSW 18:51:35 10° W visible
05 Aug 3.7 04:17:19 10° NNE 04:21:10 50° NE 04:21:10 50° NE visible
05 Aug 4.8 06:00:19 10° WNW 06:01:22 11° W 06:01:22 11° W visible
05 Aug 5.2 18:09:29 10° SSW 18:13:40 26° WSW 18:17:50 10° WNW visible
06 Aug 5.1 03:41:24 10° NE 03:44:02 24° ENE 03:44:02 24° ENE visible
06 Aug 3.9 05:20:20 10° NNW 05:24:14 27° WNW 05:24:14 27° WNW visible
